User: anonymous   Login
Location: Unspecified
(49.2170°N, 0.0000°E)
Time: 11:36:16
(UTC+00:00)
Language:

Explorer 11/Cluster Stage 4 - Orbit

View from above orbital plane
View from above orbital plane
View from above satellite
View from above satellite

Ground track
Ground track

The orbit data is extracted from the following two-line orbital elements,

1   107U 61013A   19167.23057716 +.00000373 +00000-0 +30466-4 0  9990
2   107 028.7896 095.1336 0547214 340.2961 017.7209 14.08785396914398
Epoch (UTC): 16 June 2019 05:32:01
Eccentricity: 0.0547214
inclination: 28.7896°
perigee height: 467 km
apogee height: 1260 km
right ascension of ascending node: 95.1336°
argument of perigee: 340.2961°
revolutions per day: 14.08785396
mean anomaly at epoch: 17.7209°
orbit number at epoch: 91439

The dashed part of the orbit path shows where the satellite is in the earth's shadow,  

DLR